Weather History for Chippewa, MI

Change the Weather History Date:

Wednesday, May 15, 2013

  Actual Average Record
Temperature  
Mean Temperature 55 °F -  
Max Temperature 69 °F 63 °F 84 °F (1998)
Min Temperature 41 °F 37 °F 19 °F (1983)
Degree Days  
Heating Degree Days 10    
Growing Degree Days 5 (Base 50)    
Moisture  
Dew Point 39 °F    
Average Humidity 61    
Maximum Humidity 93    
Minimum Humidity 23    
Precipitation  
Precipitation 0.13 in - - ()
Sea Level Pressure  
Sea Level Pressure 29.61 in    
Wind  
Wind Speed 15 mph (NW)    
Max Wind Speed 28 mph    
Max Gust Speed 40 mph    
Visibility 9 miles    
Events      
Averages and records for this station are not official NWS values.
T = Trace of Precipitation, MM = Missing Value Source: NWS Daily Summary

Daily Weather History Graph

Daily Weather History Graph

Search for Another Location

Airport:

Trip Planner

Search our weather history database for the weather conditions in past years. The results will help you decide how hot, cold, wet, or windy it might be!

Date:

Astronomy

May. 15, 2013 Rise Set
Actual Time 6:04 AM EDT 9:04 PM EDT
Civil Twilight 5:29 AM EDT 9:40 PM EDT
Nautical Twilight 4:44 AM EDT 10:25 PM EDT
Astronomical Twilight 3:49 AM EDT 11:20 PM EDT
Moon 10:42 AM EDT (5/15) 12:47 AM EDT (5/15)
Length of Visible Light 16h 10m
Length of Day
14h 59m
Waxing Crescent, 26% of the Moon is Illuminated
May 15
Waxing Crescent
May 18
First Quarter
May 25
Full
May 31
Last Quarter
Jun 8
New

Hourly Weather History & Observations

Time (EDT) Temp. Windchill Dew Point Humidity Pressure Visibility Wind Dir Wind Speed Gust Speed Precip Events Conditions
12:15 AM 42.8 °F 34.8 °F 39.2 °F 87% 29.65 in 10.0 mi ESE 17.3 mph - N/A   Mostly Cloudy
12:35 AM 42.8 °F 35.4 °F 39.2 °F 87% 29.64 in 10.0 mi ESE 15.0 mph - N/A   Mostly Cloudy
12:55 AM 42.8 °F 35.8 °F 39.2 °F 87% 29.63 in 10.0 mi ESE 13.8 mph 20.7 mph N/A   Mostly Cloudy
1:15 AM 42.8 °F 35.8 °F 39.2 °F 87% 29.61 in 10.0 mi ESE 13.8 mph - N/A   Mostly Cloudy
1:35 AM 42.8 °F 36.2 °F 39.2 °F 87% 29.60 in 10.0 mi ESE 12.7 mph - N/A   Mostly Cloudy
1:55 AM 42.8 °F 35.4 °F 39.2 °F 87% 29.58 in 10.0 mi ESE 15.0 mph 19.6 mph N/A   Scattered Clouds
2:15 AM 42.8 °F 34.8 °F 39.2 °F 87% 29.56 in 10.0 mi ESE 17.3 mph 21.9 mph N/A   Partly Cloudy
2:35 AM 42.8 °F 34.5 °F 39.2 °F 87% 29.53 in 10.0 mi ESE 18.4 mph 26.5 mph N/A   Clear
2:55 AM 42.8 °F 34.3 °F 39.2 °F 87% 29.50 in 10.0 mi ESE 19.6 mph - N/A   Clear
3:15 AM 42.8 °F 34.8 °F 39.2 °F 87% 29.49 in 10.0 mi ESE 17.3 mph 25.3 mph N/A   Clear
3:35 AM 42.8 °F 34.8 °F 39.2 °F 87% 29.48 in 10.0 mi ESE 17.3 mph - N/A   Partly Cloudy
3:55 AM 42.8 °F 36.2 °F 39.2 °F 87% 29.48 in 10.0 mi ESE 12.7 mph - N/A   Clear
4:15 AM 42.8 °F 37.0 °F 39.2 °F 87% 29.50 in 9.0 mi ESE 10.4 mph - N/A   Clear
4:35 AM 42.8 °F 38.0 °F 39.2 °F 87% 29.49 in 8.0 mi ESE 8.1 mph - N/A   Clear
4:55 AM 42.8 °F 39.3 °F 39.2 °F 87% 29.49 in 7.0 mi East 5.8 mph - N/A   Clear
5:15 AM 42.8 °F 39.3 °F 39.2 °F 87% 29.48 in 7.0 mi East 5.8 mph - N/A   Clear
5:35 AM 41.0 °F 38.0 °F 39.2 °F 93% 29.49 in 7.0 mi ENE 4.6 mph - N/A   Clear
5:55 AM 41.0 °F 38.0 °F 39.2 °F 93% 29.49 in 5.0 mi NNE 4.6 mph - N/A   Clear
6:15 AM 41.0 °F 35.8 °F 39.2 °F 93% 29.49 in 5.0 mi ENE 8.1 mph - N/A   Clear
6:35 AM 42.8 °F - 41.0 °F 93% 29.50 in 5.0 mi Calm Calm - N/A   Clear
6:55 AM 41.0 °F - 39.2 °F 93% 29.51 in 5.0 mi Calm Calm - N/A   Clear
7:15 AM 42.8 °F - 41.0 °F 93% 29.51 in 4.0 mi Calm Calm - N/A   Clear
7:35 AM 42.8 °F 41.1 °F 41.0 °F 93% 29.52 in 5.0 mi West 3.5 mph - N/A   Clear
7:55 AM 44.6 °F 40.7 °F 42.8 °F 93% 29.53 in 6.0 mi WNW 6.9 mph - N/A   Clear
8:15 AM 46.4 °F 42.4 °F 42.8 °F 87% 29.53 in 10.0 mi West 8.1 mph - N/A   Clear
8:35 AM 48.2 °F - 42.8 °F 82% 29.54 in 10.0 mi WNW 15.0 mph 19.6 mph N/A   Clear
8:55 AM 51.8 °F - 42.8 °F 71% 29.54 in 10.0 mi NW 20.7 mph 34.5 mph N/A   Partly Cloudy
9:15 AM 53.6 °F - 42.8 °F 67% 29.56 in 10.0 mi WNW 19.6 mph 31.1 mph N/A   Mostly Cloudy
9:35 AM 51.8 °F - 44.6 °F 76% 29.56 in 10.0 mi WNW 18.4 mph 32.2 mph N/A   Overcast
9:55 AM 51.8 °F - 44.6 °F 76% 29.57 in 10.0 mi NW 19.6 mph 33.4 mph 0.13 in   Mostly Cloudy
10:15 AM 53.6 °F - 44.6 °F 72% 29.56 in 10.0 mi NW 27.6 mph 39.1 mph N/A   Overcast
10:35 AM 53.6 °F - 44.6 °F 72% 29.58 in 9.0 mi NW 26.5 mph 40.3 mph N/A   Overcast
10:55 AM 53.6 °F - 44.6 °F 72% 29.59 in 10.0 mi NW 25.3 mph 34.5 mph N/A   Overcast
11:15 AM 53.6 °F - 44.6 °F 72% 29.61 in 10.0 mi NW 18.4 mph 31.1 mph N/A   Overcast
11:35 AM 53.6 °F - 46.4 °F 77% 29.62 in 10.0 mi NW 19.6 mph 33.4 mph N/A   Overcast
11:55 AM 55.4 °F - 46.4 °F 72% 29.62 in 10.0 mi WNW 20.7 mph 27.6 mph N/A   Overcast
12:15 PM 57.2 °F - 46.4 °F 67% 29.62 in 10.0 mi WNW 20.7 mph 34.5 mph N/A   Mostly Cloudy
12:35 PM 60.8 °F - 46.4 °F 59% 29.63 in 10.0 mi WNW 19.6 mph 31.1 mph N/A   Clear
12:55 PM 62.6 °F - 44.6 °F 52% 29.62 in 10.0 mi NW 24.2 mph - N/A   Clear
1:15 PM 62.6 °F - 44.6 °F 52% 29.63 in 10.0 mi NW 20.7 mph 32.2 mph N/A   Clear
1:35 PM 64.4 °F - 42.8 °F 45% 29.64 in 10.0 mi WNW 16.1 mph 33.4 mph N/A   Clear
1:55 PM 66.2 °F - 41.0 °F 40% 29.64 in 10.0 mi NW 20.7 mph 28.8 mph N/A   Clear
2:15 PM 66.2 °F - 39.2 °F 37% 29.65 in 10.0 mi NW 21.9 mph 33.4 mph N/A   Clear
2:35 PM 66.2 °F - 39.2 °F 37% 29.64 in 10.0 mi NW 24.2 mph 33.4 mph N/A   Clear
2:55 PM 66.2 °F - 37.4 °F 35% 29.65 in 10.0 mi WNW 18.4 mph 26.5 mph N/A   Clear
3:15 PM 66.2 °F - 37.4 °F 35% 29.65 in 10.0 mi NW 26.5 mph 32.2 mph N/A   Clear
3:35 PM 66.2 °F - 37.4 °F 35% 29.65 in 10.0 mi NW 21.9 mph 34.5 mph N/A   Clear
3:55 PM 66.2 °F - 37.4 °F 35% 29.65 in 10.0 mi NW 23.0 mph 31.1 mph N/A   Clear
4:15 PM 66.2 °F - 37.4 °F 35% 29.66 in 10.0 mi NW 21.9 mph 29.9 mph N/A   Clear
4:35 PM 69.8 °F - 37.4 °F 31% 29.65 in 10.0 mi WNW 23.0 mph 31.1 mph N/A   Clear
4:55 PM 69.8 °F - 35.6 °F 28% 29.65 in 10.0 mi NW 21.9 mph 29.9 mph N/A   Clear
5:15 PM 69.8 °F - 33.8 °F 27% 29.66 in 10.0 mi NW 17.3 mph 26.5 mph N/A   Clear
5:35 PM 69.8 °F - 32.0 °F 25% 29.66 in 10.0 mi WNW 17.3 mph 27.6 mph N/A   Clear
5:55 PM 69.8 °F - 30.2 °F 23% 29.66 in 10.0 mi WNW 24.2 mph 34.5 mph N/A   Clear
6:15 PM 69.8 °F - 30.2 °F 23% 29.67 in 10.0 mi WNW 23.0 mph 32.2 mph N/A   Clear
6:35 PM 69.8 °F - 32.0 °F 25% 29.67 in 10.0 mi West 24.2 mph 32.2 mph N/A   Clear
6:55 PM 69.8 °F - 30.2 °F 23% 29.68 in 10.0 mi WNW 20.7 mph 33.4 mph N/A   Clear
7:15 PM 69.8 °F - 33.8 °F 27% 29.68 in 10.0 mi West 20.7 mph 33.4 mph N/A   Clear
7:35 PM 69.8 °F - 33.8 °F 27% 29.68 in 10.0 mi West 23.0 mph 31.1 mph N/A   Clear
7:55 PM 68.0 °F - 33.8 °F 28% 29.68 in 10.0 mi West 21.9 mph 36.8 mph N/A   Clear
8:15 PM 68.0 °F - 35.6 °F 30% 29.69 in 10.0 mi West 18.4 mph 32.2 mph N/A   Clear
8:35 PM 66.2 °F - 35.6 °F 32% 29.69 in 10.0 mi West 16.1 mph 31.1 mph N/A   Clear
8:55 PM 66.2 °F - 35.6 °F 32% 29.69 in 10.0 mi West 17.3 mph 20.7 mph N/A   Clear
9:15 PM 64.4 °F - 35.6 °F 34% 29.70 in 10.0 mi West 12.7 mph 18.4 mph N/A   Clear
9:35 PM 62.6 °F - 37.4 °F 39% 29.70 in 10.0 mi West 11.5 mph - N/A   Clear
9:55 PM 62.6 °F - 37.4 °F 39% 29.71 in 10.0 mi West 9.2 mph - N/A   Clear
10:15 PM 60.8 °F - 37.4 °F 42% 29.71 in 10.0 mi West 6.9 mph - N/A   Clear
10:35 PM 60.8 °F - 37.4 °F 42% 29.72 in 10.0 mi NNW 4.6 mph - N/A   Clear
10:55 PM 57.2 °F - 39.2 °F 51% 29.72 in 10.0 mi NW 8.1 mph - N/A   Clear
11:15 PM 55.4 °F - 39.2 °F 54% 29.72 in 10.0 mi NNW 6.9 mph - N/A   Clear
11:35 PM 53.6 °F - 39.2 °F 58% 29.72 in 10.0 mi North 6.9 mph - N/A   Clear
11:55 PM 51.8 °F - 39.2 °F 62% 29.72 in 10.0 mi NNW 8.1 mph - N/A   Clear